Weather History for Cody, WY

Change the Weather History Date:

Tuesday, January 8, 2013

  Actual Average Record
Temperature  
Mean Temperature 37 °F -  
Max Temperature 41 °F 31 °F 60 °F (1984)
Min Temperature 33 °F 8 °F -25 °F (1937)
Degree Days  
Heating Degree Days 28    
Moisture  
Dew Point 18 °F    
Average Humidity 46    
Maximum Humidity 56    
Minimum Humidity 39    
Precipitation  
Precipitation 0.00 in - - ()
Sea Level Pressure  
Sea Level Pressure 29.88 in    
Wind  
Wind Speed 18 mph (WSW)    
Max Wind Speed 29 mph    
Max Gust Speed 46 mph    
Visibility 10 miles    
Events      
Averages and records for this station are not official NWS values.
T = Trace of Precipitation, MM = Missing Value Source: NWS Daily Summary

Daily Weather History Graph

Daily Weather History Graph

Search for Another Location

Airport:

Trip Planner

Search our weather history database for the weather conditions in past years. The results will help you decide how hot, cold, wet, or windy it might be!

Date:

Astronomy

Jan. 08, 2013 Rise Set
Actual Time 7:51 AM MST 4:54 PM MST
Civil Twilight 7:19 AM MST 5:27 PM MST
Nautical Twilight 6:42 AM MST 6:03 PM MST
Astronomical Twilight 6:07 AM MST 6:38 PM MST
Moon 4:27 AM MST (1/8) 1:59 PM MST (1/8)
Length of Visible Light 10h 08m
Length of Day
9h 02m
Waning Crescent, 13% of the Moon is Illuminated
Jan 8
Waning Crescent
Jan 11
New
Jan 18
First Quarter
Jan 26
Full
Feb 3
Last Quarter

Hourly Weather History & Observations

Time (MST) Temp. Windchill Dew Point Humidity Pressure Visibility Wind Dir Wind Speed Gust Speed Precip Events Conditions
12:15 AM 37.4 °F 27.5 °F 17.6 °F 45% 29.69 in 10.0 mi WSW 18.4 mph 33.4 mph N/A   Clear
12:35 AM 37.4 °F 26.4 °F 17.6 °F 45% 29.69 in 10.0 mi West 23.0 mph 44.9 mph N/A   Clear
12:55 AM 39.2 °F 28.3 °F 17.6 °F 42% 29.68 in 10.0 mi West 25.3 mph 39.1 mph N/A   Clear
1:15 AM 37.4 °F 26.9 °F 17.6 °F 45% 29.70 in 10.0 mi WSW 20.7 mph 34.5 mph N/A   Clear
1:35 AM 37.4 °F 25.9 °F 19.4 °F 48% 29.70 in 10.0 mi WSW 25.3 mph 38.0 mph N/A   Clear
1:55 AM 37.4 °F 25.9 °F 19.4 °F 48% 29.72 in 10.0 mi WSW 25.3 mph 32.2 mph N/A   Clear
2:15 AM 37.4 °F 25.2 °F 19.4 °F 48% 29.70 in 10.0 mi WSW 28.8 mph 41.4 mph N/A   Clear
2:35 AM 35.6 °F 23.2 °F 19.4 °F 52% 29.71 in 10.0 mi WSW 26.5 mph 41.4 mph N/A   Clear
2:55 AM 35.6 °F 22.7 °F 21.2 °F 56% 29.72 in 10.0 mi WSW 28.8 mph 46.0 mph N/A   Clear
3:15 AM 35.6 °F 23.4 °F 19.4 °F 52% 29.73 in 10.0 mi West 25.3 mph 39.1 mph N/A   Clear
3:35 AM 35.6 °F 23.2 °F 19.4 °F 52% 29.73 in 10.0 mi West 26.5 mph 40.3 mph N/A   Clear
3:55 AM 35.6 °F 24.2 °F 19.4 °F 52% 29.73 in 10.0 mi WSW 21.9 mph 42.6 mph N/A   Clear
4:15 AM 35.6 °F 23.0 °F 19.4 °F 52% 29.73 in 10.0 mi WSW 27.6 mph 39.1 mph N/A   Clear
4:35 AM 35.6 °F 25.5 °F 19.4 °F 52% 29.75 in 10.0 mi WSW 17.3 mph 38.0 mph N/A   Clear
4:55 AM 35.6 °F 27.5 °F 19.4 °F 52% 29.77 in 10.0 mi West 11.5 mph 26.5 mph N/A   Clear
5:15 AM 33.8 °F 29.6 °F 19.4 °F 56% 29.79 in 10.0 mi NE 4.6 mph - N/A   Clear
5:35 AM 35.6 °F 29.2 °F 19.4 °F 52% 29.79 in 10.0 mi South 8.1 mph - N/A   Clear
5:55 AM 33.8 °F 25.8 °F 17.6 °F 52% 29.79 in 10.0 mi East 10.4 mph - N/A   Clear
6:15 AM 33.8 °F 25.8 °F 17.6 °F 52% 29.80 in 10.0 mi SE 10.4 mph - N/A   Partly Cloudy
6:35 AM 35.6 °F 28.6 °F 15.8 °F 44% 29.81 in 10.0 mi SE 9.2 mph - N/A   Partly Cloudy
6:55 AM 35.6 °F 29.2 °F 17.6 °F 48% 29.81 in 10.0 mi WSW 8.1 mph 17.3 mph N/A   Partly Cloudy
7:15 AM 35.6 °F 28.6 °F 15.8 °F 44% 29.81 in 10.0 mi NW 9.2 mph 18.4 mph N/A   Clear
7:35 AM 35.6 °F 28.0 °F 15.8 °F 44% 29.82 in 10.0 mi West 10.4 mph 23.0 mph N/A   Clear
8:15 AM 35.6 °F 26.2 °F 17.6 °F 48% 29.84 in 10.0 mi WSW 15.0 mph 24.2 mph N/A   Clear
8:35 AM 35.6 °F 28.0 °F 17.6 °F 48% 29.86 in 10.0 mi West 10.4 mph 23.0 mph N/A   Clear
8:55 AM 37.4 °F 28.5 °F 17.6 °F 45% 29.86 in 10.0 mi WSW 15.0 mph 21.9 mph N/A   Clear
9:15 AM 37.4 °F 29.8 °F 17.6 °F 45% 29.87 in 10.0 mi West 11.5 mph 26.5 mph N/A   Clear
9:35 AM 37.4 °F 27.8 °F 17.6 °F 45% 29.88 in 10.0 mi West 17.3 mph 26.5 mph N/A   Clear
9:55 AM 37.4 °F 28.2 °F 17.6 °F 45% 29.88 in 10.0 mi West 16.1 mph 26.5 mph N/A   Clear
10:15 AM 37.4 °F 26.9 °F 17.6 °F 45% 29.90 in 10.0 mi West 20.7 mph 27.6 mph N/A   Clear
10:35 AM 37.4 °F 29.3 °F 17.6 °F 45% 29.90 in 10.0 mi West 12.7 mph 21.9 mph N/A   Clear
10:55 AM 37.4 °F 28.9 °F 15.8 °F 41% 29.91 in 10.0 mi WSW 13.8 mph 21.9 mph N/A   Clear
11:15 AM 39.2 °F 31.6 °F 17.6 °F 42% 29.90 in 10.0 mi WSW 12.7 mph 21.9 mph N/A   Clear
11:35 AM 39.2 °F 31.6 °F 15.8 °F 39% 29.91 in 10.0 mi WSW 12.7 mph 24.2 mph N/A   Clear
11:55 AM 39.2 °F 31.2 °F 17.6 °F 42% 29.91 in 10.0 mi West 13.8 mph 21.9 mph N/A   Partly Cloudy
12:15 PM 39.2 °F 30.5 °F 17.6 °F 42% 29.92 in 10.0 mi West 16.1 mph 25.3 mph N/A   Mostly Cloudy
1:15 PM 39.2 °F 30.5 °F 17.6 °F 42% 29.94 in 10.0 mi West 16.1 mph 21.9 mph N/A   Mostly Cloudy
1:35 PM 39.2 °F 33.6 °F 15.8 °F 39% 29.94 in 10.0 mi WSW 8.1 mph 19.6 mph N/A   Partly Cloudy
1:55 PM 39.2 °F 30.5 °F 17.6 °F 42% 29.95 in 10.0 mi WSW 16.1 mph 29.9 mph N/A   Partly Cloudy
2:35 PM 39.2 °F 31.6 °F 15.8 °F 39% 29.96 in 10.0 mi West 12.7 mph 26.5 mph N/A   Mostly Cloudy
2:55 PM 41.0 °F 35.2 °F 17.6 °F 39% 29.97 in 10.0 mi West 9.2 mph - N/A   Mostly Cloudy
3:15 PM 41.0 °F 32.2 °F 17.6 °F 39% 29.96 in 10.0 mi West 18.4 mph 32.2 mph N/A   Scattered Clouds
3:35 PM 39.2 °F 29.6 °F 17.6 °F 42% 29.96 in 10.0 mi West 19.6 mph 26.5 mph N/A   Partly Cloudy
3:55 PM 39.2 °F 32.5 °F 17.6 °F 42% 29.97 in 10.0 mi West 10.4 mph 27.6 mph N/A   Scattered Clouds
4:16 PM 39.2 °F 32.5 °F 17.6 °F 42% 29.98 in 10.0 mi West 10.4 mph - N/A   Mostly Cloudy
4:35 PM 39.2 °F 32.5 °F 17.6 °F 42% 29.97 in 10.0 mi West 10.4 mph 19.6 mph N/A   Mostly Cloudy
4:55 PM 39.2 °F 32.0 °F 17.6 °F 42% 29.98 in 10.0 mi West 11.5 mph 19.6 mph N/A   Partly Cloudy
5:15 PM 39.2 °F 35.0 °F 17.6 °F 42% 29.98 in 10.0 mi WNW 5.8 mph 18.4 mph N/A   Clear
5:36 PM 37.4 °F 30.8 °F 17.6 °F 45% 29.98 in 10.0 mi West 9.2 mph - N/A   Clear
5:55 PM 39.2 °F 30.8 °F 19.4 °F 45% 29.98 in 10.0 mi West 15.0 mph 25.3 mph N/A   Partly Cloudy
6:15 PM 39.2 °F 29.3 °F 17.6 °F 42% 29.98 in 10.0 mi WSW 20.7 mph 32.2 mph N/A   Partly Cloudy
6:35 PM 39.2 °F 29.8 °F 19.4 °F 45% 29.99 in 10.0 mi WSW 18.4 mph 31.1 mph N/A   Clear
6:55 PM 39.2 °F 33.0 °F 19.4 °F 45% 30.00 in 10.0 mi NW 9.2 mph 19.6 mph N/A   Partly Cloudy
7:55 PM 41.0 °F 32.2 °F 19.4 °F 42% 30.01 in 10.0 mi WSW 18.4 mph 36.8 mph N/A   Clear
8:15 PM 41.0 °F 31.9 °F 19.4 °F 42% 30.01 in 10.0 mi WSW 19.6 mph 35.7 mph N/A   Mostly Cloudy
8:35 PM 39.2 °F 33.0 °F 19.4 °F 45% 30.03 in 10.0 mi South 9.2 mph 32.2 mph N/A   Mostly Cloudy
8:55 PM 39.2 °F 28.3 °F 21.2 °F 49% 30.02 in 10.0 mi WSW 25.3 mph 35.7 mph N/A   Mostly Cloudy
9:15 PM 41.0 °F 31.9 °F 21.2 °F 45% 30.02 in 10.0 mi WSW 19.6 mph 33.4 mph N/A   Scattered Clouds
9:35 PM 41.0 °F 32.5 °F 21.2 °F 45% 30.02 in 10.0 mi WSW 17.3 mph 34.5 mph N/A   Partly Cloudy
10:35 PM 39.2 °F 29.0 °F 21.2 °F 49% 30.03 in 10.0 mi WSW 21.9 mph 36.8 mph N/A   Clear
10:55 PM 39.2 °F 28.7 °F 21.2 °F 49% 30.04 in 10.0 mi WSW 23.0 mph 38.0 mph N/A   Clear
11:15 PM 39.2 °F 28.3 °F 21.2 °F 49% 30.03 in 10.0 mi WSW 25.3 mph 35.7 mph N/A   Clear
11:35 PM 39.2 °F 29.0 °F 21.2 °F 49% 30.04 in 10.0 mi WSW 21.9 mph 36.8 mph N/A   Clear
11:56 PM 41.0 °F 31.6 °F 21.2 °F 45% 30.06 in 10.0 mi WSW 20.7 mph 38.0 mph N/A   Clear